FREGAT R/B (44116 NORAD) Tracking and Keplerian Element Data

This shows tracking and keplerian element data for the satellite.

Feedback or suggestion? Click here.




ElementValue
Catalog44116
NameFREGAT R/B
Epoch Orbit0
Epoch Day94.89148573
Epoch Year2019
RAAN327.1757
Inclination0.0543
Eccentricity0.0058215
Argument of Perigee216.9262
Mean Anonmoly310.5736
Mean Motion5.16618623
Decay Rate-2E-07
L11 44116U 19020E 19094.89148573 -.00000020 00000-0 00000+0 0 9998
L22 44116 0.0543 327.1757 0058215 216.9262 310.5736 5.16618623 04

Live tracking and technical data element details for FREGAT R/B (NORAD 44116). FREGAT R/B can be tracked NOW for your location showing map with azimuth and elevation plus other details from your city location.

Track the satellite on the map from your city or location and see movement details for azimuth, elevation, latitude, longitude, range, height, and movement on the map or in text.







IsCatalogInMostPopularTable: catalog: 44116, numindb: 26
Update: records affected: 1



GetName: 44116 FREGAT R/B

Hit Count: updated at: Mon, 22 Jul 2019 04:11:15 GMT